RH
10 10 9 7 6 6 6 7 7 7 7 7 7 4 3 19 29 23 21 20 18 14 14 17 24 34 43 49 59 60 98 74 50 52 44 48 45 31 48 46 40 42 45 37 40
11 11 10 9 8 9 9 9 8 8 8 7 7 6 5 3 15 29 24 22 21 18 13 16 20 30 43 54 60 68 88 68 55 54 56 57 50 38 34 41 43 45 47 45 44
14 14 12 12 11 11 11 11 10 10 10 10 8 7 6 4 4 11 30 25 23 20 15 15 27 36 46 63 70 71 82 70 69 62 60 65 46 57 40 52 38 43 48 47 46
24 22 19 17 16 14 13 13 11 10 9 9 8 7 6 4 22 20 27 30 25 22 19 18 70 67 82 82 80 74 78 85 82 74 50 51 59 44 40 56 54 57 45 51 50
32 29 27 24 21 18 17 14 14 10 8 7 8 8 7 6 4 9 26 32 28 28 25 27 65 84 95 94 97 97 85 93 93 70 57 61 50 44 45 56 46 52 41 50 52
10 8 7 7 7 7 7 7 7 7 6 6 6 7 10 11 11 8 11 23 36 42 34 74 97 95 94 88 93 94 91 94 80 96 65 59 54 53 39 44 39 46 46 49 53
3 3 3 3 3 3 3 3 4 4 5 8 7 41 23 20 15 16 15 18 53 53 69 82 100 99 99 91 90 92 95 95 92 86 90 62 58 64 42 41 35 41 48 54 55
3 3 3 3 3 3 4 3 4 4 4 7 16 36 52 25 15 13 12 36 74 68 77 89 95 98 100 94 92 91 86 77 76 85 91 67 56 43 38 39 37 38 43 49 55
4 5 7 15 19 29 44 29 27 20 13 13 27 27 48 66 35 19 14 20 74 80 83 58 75 92 98 100 79 82 64 69 60 86 86 62 62 46 57 62 37 39 42 42 54
9 19 34 40 38 60 64 71 72 82 66 75 76 62 55 98 41 30 14 20 37 82 79 75 94 92 100 85 67 56 60 47 55 70 85 87 49 63 50 48 34 41 49 50 50
27 81 84 63 57 65 67 73 73 97 81 77 88 64 61 86 58 29 23 20 34 67 78 78 99 97 97 86 67 58 51 53 56 64 80 80 79 49 65 40 38 34 55 62 38
70 71 72 69 63 66 68 73 78 95 79 93 99 96 71 99 67 67 64 78 95 96 100 100 99 94 97 87 86 77 69 59 58 67 75 68 65 66 68 61 29 31 35 56 49
43 62 61 63 66 65 77 80 89 92 98 61 71 83 96 96 85 93 67 91 100 100 100 98 76 87 89 88 83 78 74 60 55 50 53 50 44 29 34 24 38 28 32 34 38
36 54 55 60 63 84 90 95 96 94 97 85 40 47 95 98 96 93 97 97 100 96 92 96 79 83 87 82 79 72 74 60 58 57 42 45 30 23 27 22 27 26 29 28 25
50 51 52 61 67 81 87 85 90 94 92 72 80 88 64 72 54 65 98 97 97 93 95 92 79 88 80 79 82 74 70 75 72 71 58 52 45 30 28 33 25 23 22 24 24
48 46 58 66 76 80 85 89 93 96 81 67 95 90 93 96 92 57 85 94 97 93 85 82 82 88 80 81 86 85 85 78 81 69 66 57 44 28 29 25 22 21 21 21 20
46 51 64 68 79 76 86 96 96 89 64 87 76 88 83 77 95 78 93 98 98 98 98 94 85 73 79 79 85 88 81 73 76 74 69 44 49 33 27 27 25 24 20 20 21
43 56 61 65 70 85 92 95 95 64 75 90 71 92 89 86 91 86 90 95 98 88 93 95 88 78 75 69 72 84 68 56 56 62 44 48 43 38 24 32 26 22 21 20 22
42 59 63 71 71 84 90 100 78 77 82 91 91 82 92 96 93 88 88 94 86 90 78 79 59 62 66 63 63 78 70 59 50 41 38 38 36 32 23 21 22 21 21 20 19
45 59 67 73 79 89 93 100 87 82 81 92 92 87 69 78 93 94 81 72 87 90 78 67 66 67 63 70 61 60 60 65 66 78 45 26 30 24 23 21 21 20 19 19 18
59 60 74 81 93 85 95 91 74 74 91 96 90 96 94 94 88 94 77 64 64 85 86 74 66 68 70 69 61 61 54 52 54 50 44 30 25 27 28 23 23 22 20 21 17
59 65 68 76 79 83 90 89 87 94 97 96 84 79 85 89 92 80 85 78 77 72 86 92 81 66 66 62 62 60 54 50 55 70 56 50 33 24 23 22 22 23 22 22 19
55 54 57 65 88 100 97 94 99 96 98 98 96 74 80 94 90 95 82 92 88 84 85 90 89 76 60 66 62 61 57 55 52 58 52 41 30 23 25 24 23 23 23 23 20
66 68 62 80 92 92 88 87 89 98 95 98 95 82 77 89 99 77 98 92 84 97 95 88 92 76 56 50 60 64 60 61 62 62 48 44 34 29 31 28 26 25 25 24 22
72 75 76 84 91 88 96 94 100 97 91 78 92 81 100 83 97 94 86 92 87 76 92 91 87 92 82 72 82 68 55 57 59 62 54 41 38 35 35 31 27 25 24 24 23
69 78 73 77 79 87 94 96 95 92 99 82 81 90 100 87 83 98 78 79 89 88 97 91 93 91 80 82 84 70 70 64 53 57 58 47 41 35 35 35 30 27 25 23 23
74 80 77 84 88 93 98 96 93 96 86 99 99 98 90 96 94 90 78 72 78 89 98 99 99 96 78 68 83 78 65 61 57 52 55 54 48 42 38 34 30 30 27 24 20
Wind_Speed
28 28 28 27 26 25 25 24 25 26 24 22 21 22 21 21 22 22 19 19 19 18 19 20 23 24 24 27 27 28 19 22 23 17 14 17 17 18 20 22 22 24 23 22 18
30 30 29 27 27 28 26 25 26 26 28 27 25 26 24 23 23 23 21 21 20 18 20 20 23 25 27 28 31 31 24 21 14 19 15 17 16 19 23 24 23 22 23 20 19
29 30 31 31 30 30 31 30 28 28 28 30 31 29 28 25 24 25 22 22 21 19 19 20 22 26 28 27 28 30 29 20 19 27 21 12 17 18 21 21 24 25 24 22 19
29 31 31 32 34 34 34 34 35 33 30 29 32 32 30 27 16 17 16 17 18 20 22 22 23 28 26 29 28 26 24 20 22 27 24 21 15 23 21 16 20 19 26 23 22
34 36 36 36 37 38 38 39 38 37 35 31 32 36 32 33 30 26 20 17 15 15 20 23 25 25 24 22 20 29 19 24 23 27 23 20 23 21 24 23 25 27 26 25 24
35 37 39 41 43 43 41 41 40 40 37 34 32 35 36 39 30 26 28 25 21 17 17 21 22 23 18 23 27 15 30 21 25 24 25 24 25 23 26 25 27 27 25 27 26
40 40 42 44 45 46 47 45 44 45 40 36 32 31 40 41 31 25 25 24 20 17 17 18 21 25 24 18 23 26 16 24 28 21 21 25 31 30 25 25 27 26 28 27 28
42 44 44 45 45 45 47 46 47 46 44 39 31 32 43 39 34 36 29 23 23 22 26 24 23 24 19 19 14 21 23 24 17 28 21 26 27 24 28 30 29 25 28 29 30
42 42 40 38 38 36 37 39 39 42 43 39 36 32 43 37 39 32 31 30 27 26 27 25 26 24 25 19 19 22 22 28 23 19 21 28 25 28 21 29 31 30 29 31 31
38 37 36 34 34 34 35 32 32 30 31 32 30 26 38 23 20 32 33 31 34 29 28 26 26 27 26 28 30 21 26 20 26 21 25 26 33 20 28 30 28 28 30 32 32
36 31 33 32 32 32 33 33 30 21 22 31 20 32 20 14 31 23 35 35 35 34 35 31 32 40 31 29 27 15 22 24 18 20 15 27 28 29 26 28 25 30 29 31 35
32 31 33 33 31 30 29 29 25 28 36 28 30 34 27 19 23 27 20 33 33 34 29 23 36 28 27 24 26 24 14 19 14 19 20 17 25 26 29 31 31 31 34 31 35
33 32 32 32 31 28 26 23 23 25 34 39 34 33 34 33 27 21 31 27 31 32 34 34 17 28 26 27 27 26 24 17 13 11 15 15 28 34 33 32 35 33 30 31 36
31 29 29 30 28 24 20 20 19 21 16 22 33 36 34 33 33 28 23 29 24 33 30 33 27 18 28 28 28 29 23 18 13 6 10 8 8 11 23 30 38 34 34 35 32
28 27 26 25 25 19 19 18 19 18 6 10 13 11 20 33 34 36 29 30 29 24 30 26 27 25 25 29 24 25 18 24 20 19 19 20 9 17 17 24 33 33 32 35 35
27 26 24 21 18 16 15 14 13 7 7 7 5 8 16 28 31 21 37 33 30 25 28 16 17 22 22 18 23 15 13 14 15 15 15 27 24 15 19 26 23 25 31 33 32
26 23 19 17 15 14 14 11 6 7 7 6 11 10 18 20 28 30 36 40 32 21 27 25 17 14 16 19 20 19 21 8 7 9 9 3 23 20 11 17 19 23 25 29 33
24 20 16 16 14 12 10 8 8 7 10 12 8 9 15 18 24 34 27 38 37 29 21 19 14 20 18 18 15 29 29 8 7 6 11 8 12 15 25 20 19 22 23 25 30
23 18 15 12 11 9 9 7 8 7 8 9 11 11 10 13 9 27 32 32 41 36 24 22 23 17 21 22 18 27 33 13 6 4 7 11 11 18 17 20 26 25 22 23 27
22 16 11 8 9 7 8 11 13 14 18 14 6 6 9 13 10 19 22 28 29 34 31 18 15 17 20 24 24 18 25 23 10 5 6 9 13 12 13 27 22 23 26 24 24
17 14 8 9 7 9 8 9 16 13 11 7 6 8 10 2 17 15 8 10 27 28 32 30 16 10 17 24 25 23 22 21 15 12 7 10 6 10 17 12 24 25 21 27 20
16 11 11 8 9 8 10 10 14 10 8 10 8 10 13 9 5 14 14 12 11 29 34 29 15 15 22 17 25 26 25 31 14 9 11 4 0 3 4 9 15 19 22 25 24
15 10 8 9 6 7 9 12 14 10 9 6 7 7 7 7 7 11 13 12 13 24 27 32 16 14 12 12 25 31 33 31 34 15 20 12 5 7 9 7 9 13 20 22 22
14 8 10 6 9 11 13 12 10 8 10 10 11 12 10 10 11 5 7 12 10 15 17 26 17 22 18 16 21 30 35 30 28 27 23 24 27 12 16 10 7 7 16 20 21
13 9 9 10 9 14 13 15 13 10 9 7 8 10 8 12 6 11 8 7 13 9 17 16 11 18 20 18 15 20 38 42 40 38 31 28 19 21 16 11 5 3 9 16 19
11 11 12 9 11 14 10 13 11 10 13 7 9 8 6 9 6 8 8 9 11 19 20 22 9 10 17 16 20 20 23 31 48 43 39 30 32 19 21 18 6 9 11 13 16
7 9 15 11 14 13 13 16 16 13 9 12 9 7 7 6 5 5 6 12 13 16 21 24 16 11 17 15 17 18 35 30 36 43 40 39 36 24 28 30 21 16 12 15 16
Wind_Direction
294 290 289 291 289 285 285 284 286 290 289 290 289 284 279 271 268 265 260 259 257 254 237 232 230 223 220 221 213 210 216 230 227 229 225 217 216 212 201 210 214 209 212 213 205
295 293 292 288 287 287 282 281 281 280 285 285 285 283 279 275 268 261 258 256 253 248 244 232 229 226 220 216 217 212 221 227 231 225 217 242 214 225 219 218 213 215 217 217 214
294 293 292 290 287 286 287 288 281 278 276 278 280 278 277 273 272 267 258 254 251 240 238 228 226 223 222 218 218 224 222 225 230 227 217 216 215 227 213 223 223 224 221 220 217
297 293 291 289 289 287 285 284 285 283 274 270 270 275 274 269 264 262 249 242 241 234 226 221 210 216 214 220 221 227 235 222 224 243 235 228 226 227 220 219 212 229 222 226 228
297 294 293 291 286 284 283 282 281 282 279 271 268 272 271 265 257 254 248 243 239 234 222 216 210 214 216 225 223 227 221 228 238 234 229 223 228 228 229 217 222 227 226 225 226
298 294 293 290 288 286 283 280 278 277 275 270 265 267 269 264 261 253 252 249 246 233 224 209 210 212 229 227 222 229 231 237 230 235 238 234 232 233 230 228 228 231 229 228 228
299 295 292 289 286 284 282 279 275 274 271 267 258 258 261 259 256 251 243 247 240 220 224 216 207 202 224 225 228 225 231 230 234 237 231 241 238 236 226 233 234 231 229 227 226
301 298 294 292 288 284 280 276 273 270 268 266 257 246 254 257 256 244 240 228 223 212 220 212 202 209 215 223 219 222 230 230 240 224 226 235 243 248 235 236 235 234 231 228 228
307 303 300 299 294 290 286 282 273 267 266 265 259 242 254 260 249 245 238 228 219 214 225 223 215 213 208 217 219 215 221 228 227 218 214 231 244 228 238 230 233 235 231 230 227
311 309 305 303 297 293 288 283 277 272 269 262 260 238 236 237 247 239 231 224 225 218 222 219 214 203 206 206 214 216 220 225 222 223 219 230 236 235 231 231 230 226 226 231 228
313 311 308 307 303 297 297 290 290 286 268 257 247 250 244 242 236 233 220 214 219 221 216 212 206 210 207 208 208 225 230 228 228 228 226 230 243 239 237 230 231 231 223 224 229
313 309 304 305 303 302 298 293 293 287 274 250 247 234 231 242 241 227 204 200 202 206 203 209 220 220 218 218 223 228 238 222 227 221 236 239 249 246 235 236 234 231 222 220 227
312 310 308 306 303 300 299 295 281 268 273 270 252 250 226 222 214 218 214 201 206 203 205 210 222 216 216 218 221 224 225 225 231 225 244 253 264 248 242 236 232 230 227 226 231
317 316 313 309 307 305 301 296 290 291 274 274 262 262 230 222 235 208 211 203 204 209 208 219 218 216 212 218 217 223 217 216 216 238 237 212 284 243 233 234 233 230 227 229 230
322 320 317 312 306 306 299 290 289 297 286 293 226 235 230 221 224 218 217 199 207 198 200 207 212 212 214 218 213 221 219 222 233 247 259 247 258 254 225 216 225 229 228 232 233
327 324 321 313 307 300 295 289 285 271 249 289 231 233 198 210 209 212 210 210 201 203 214 207 201 210 220 212 207 212 203 209 226 238 251 238 220 246 218 233 230 225 232 231 230
326 325 320 312 308 305 300 292 275 235 285 286 257 236 212 215 213 206 202 200 198 183 186 199 195 192 183 195 191 192 179 168 202 208 235 222 220 227 199 225 214 219 225 226 226
329 327 319 312 311 309 299 285 250 264 273 288 290 266 233 217 213 212 207 206 207 201 182 183 195 200 190 195 191 193 187 180 204 208 215 217 233 235 234 226 221 217 219 220 223
329 330 321 319 315 303 296 258 261 287 301 288 296 260 253 214 209 203 211 214 214 211 214 201 221 204 213 209 193 198 211 212 300 259 248 202 241 236 230 228 227 233 226 223 224
328 335 329 330 330 314 279 262 273 292 291 305 295 278 255 225 204 194 207 222 218 214 214 223 207 189 201 194 196 207 203 213 228 226 227 199 228 246 227 223 221 222 218 220 222
330 336 319 332 321 310 271 276 302 313 277 274 280 291 291 302 208 202 216 207 213 208 204 210 208 179 194 199 198 196 202 210 218 239 259 238 210 199 215 222 223 220 220 214 215
335 333 317 313 315 308 297 300 303 307 281 284 291 281 284 279 255 226 231 202 212 201 198 199 203 178 205 212 208 215 211 207 209 207 231 305 24 122 238 223 216 215 217 204 207
341 338 330 320 302 311 326 308 299 279 282 271 267 276 268 250 240 227 230 222 169 189 198 198 209 204 203 230 219 216 211 219 218 236 221 215 168 146 58 45 219 212 202 199 202
347 341 341 352 352 334 330 324 322 300 282 251 264 277 290 279 233 234 202 214 180 189 192 200 204 209 214 227 216 216 216 219 218 226 228 226 234 251 296 299 346 220 203 197 202
359 349 353 337 343 334 324 312 326 296 286 262 280 274 259 291 220 200 194 197 201 222 204 193 201 212 227 234 236 238 231 219 219 218 223 231 229 235 271 282 276 229 208 209 208
12 4 356 353 346 343 358 339 337 312 256 267 272 276 239 237 267 192 206 218 202 212 208 205 225 225 242 246 239 240 233 233 233 228 226 226 234 230 246 257 268 247 236 228 222
10 358 357 1 353 349 334 340 337 338 250 248 247 282 229 212 224 208 231 241 237 212 214 222 236 231 260 243 230 248 229 227 239 234 229 229 228 229 243 248 247 250 247 233 224